Regional Weather Roundup
Issued by NWS

Home | Current Version | Previous Version | Text Only | Print | Product List | Glossary Off
Versions: 1 2 3 4 5 6 7 8 9 10 11 12 13 14 15 16 17 18 19 20 21 22 23 24 25 26 27

000
ASUS43 KDMX 220807
RWRIA

WEATHER ROUNDUP FOR IOWA
NATIONAL WEATHER SERVICE DES MOINES IA
300 AM CDT TUE APR 22 2014

NOTE: "FAIR" INDICATES FEW OR NO CLOUDS BELOW 12,000 FEET WITH NO
SIGNIFICANT WEATHER AND/OR OBSTRUCTIONS TO VISIBILITY.

* - THESE STATIONS ARE NOT NWS STATIONS...THUS NOT UNDER NWS
QUALITY CONTROL.  THEY ALSO DO NOT REPORT WEATHER SUCH
AS PRECIPITATION OR FOG.

IAZ001>003-012>014-020>022-031>034-043>046-220900-
   NORTHWEST IOWA

CITY           SKY/WX    TMP DP  RH WIND       PRES   REMARKS
CARROLL *      CLEAR     41  32  70 NW9       30.14S
CHEROKEE *     CLEAR     39  28  65 CALM      30.15S
DENISON *      CLEAR     43  32  65 N5        30.14S
LE MARS *      CLEAR     34  30  86 CALM      30.17S
ORANGE CITY *  CLEAR     45  28  53 CALM      30.16
SHELDON *      CLEAR     32  25  74 CALM      30.15S
SIOUX CITY     CLEAR     41  29  62 CALM      30.17S
SPENCER        CLEAR     33  27  78 NW5       30.14F WCI  29
STORM LAKE *   CLEAR     39  30  70 N9        30.15S WCI  33
$$

IAZ055>058-069>071-079>083-090>094-220900-
   SOUTHWEST IOWA

CITY           SKY/WX    TMP DP  RH WIND       PRES   REMARKS
ATLANTIC *     CLEAR     41  34  75 N7        30.14R
AUDUBON *      CLEAR     43  30  61 N6        30.15R
CLARINDA *     CLEAR     46  36  66 N12       30.13F
COUNCIL BLFS * CLEAR     45  36  70 N6        30.14S
CRESTON *      CLEAR     45  32  61 N10       30.11S
HARLAN  *      CLEAR     43  34  70 N7        30.18S
LAMONI         CLEAR     48  34  58 N13       30.09S
RED OAK *      CLEAR     43  36  75 N9        30.14S
SHENANDOAH *   CLEAR     45  37  76 N8        30.14S
$$

IAZ047>049-059>061-072>074-084-220900-
   CENTRAL IOWA

CITY           SKY/WX    TMP DP  RH WIND       PRES   REMARKS
AMES           CLEAR     45  32  60 N16       30.11R
ANKENY *       CLEAR     46  32  57 N12       30.10R
CHARITON *     CLEAR     48  34  57 N14       30.08R
DES MOINES     CLEAR     50  30  46 N18       30.10R
GRINNELL*      CLEAR     45  34  65 NW17      30.06S
KNOXVILLE *    CLEAR     48  34  57 N15G24    30.07R
MARSHALLTOWN   CLEAR     44  33  65 N17       30.07R
NEWTON *       CLEAR     45  34  65 N15       30.08R
PELLA *        CLEAR     46  36  66 N13G18    30.07S
PERRY *          N/A     45  30  57 N10       30.13R
$$

IAZ004>006-015-016-023>025-035-036-220900-
   NORTH CENTRAL IOWA

CITY           SKY/WX    TMP DP  RH WIND       PRES   REMARKS
ALGONA *       CLEAR     39  32  75 NW9       30.13S WCI  33
CLARION *      CLEAR     39  34  81 N8        30.12R WCI  34
ESTHERVILLE    CLEAR     34  29  82 NW9       30.13S WCI  27
FORT DODGE *   CLEAR     43  30  61 N6        30.13S
MASON CITY     CLEAR     39  33  79 NW9       30.11S WCI  33
FOREST CITY *  CLEAR     41  32  70 NW6       30.09F
IOWA FALLS *     N/A     43  34  70 NW12      30.10S
$$

IAZ007>011-017>019-026>030-037>042-050>054-066-220900-
   NORTHEAST IOWA

CITY           SKY/WX    TMP DP  RH WIND       PRES   REMARKS
CEDAR RAPIDS   CLEAR     45  37  73 NW14      30.01R
CHARLES CITY * CLEAR     41  32  70 N10       30.08R
CLINTON *      CLEAR     46  34  61 NW10      29.96S
DECORAH *      CLEAR     43  30  61 N17G28    30.03R
DUBUQUE        CLEAR     47  32  56 N15       29.96R
MONTICELLO *   CLEAR     46  36  66 NW12      29.98R
OELWEIN *      CLEAR    N/A N/A N/A N16G22    30.05R
WATERLOO       CLEAR     44  29  55 N21G31    30.06R
$$

IAZ064-065-067-068-078-220900-
   EAST CENTRAL IOWA

CITY           SKY/WX    TMP DP  RH WIND       PRES   REMARKS
DAVENPORT      CLEAR     44  39  82 NW7       29.96R
IOWA CITY      CLEAR     49  39  68 NW13      30.01S
MT. PLEASANT * CLEAR     48  37  66 NW10G16   29.99S
MUSCATINE *    CLEAR     50  39  66 NW13      29.98S
QUAD CITIES    CLEAR     46  38  73 W5        29.95R
$$

IAZ062-063-075>077-085>089-095>099-220900-
   SOUTHEAST IOWA

CITY           SKY/WX    TMP DP  RH WIND       PRES   REMARKS
BURLINGTON     CLEAR     50  40  68 NW12      29.97R
FAIRFIELD *    CLEAR     46  37  71 NW12      30.02R
FORT MADISON * CLEAR     48  41  76 NW12G17   29.99S
KEOKUK *       CLEAR     50  41  71 N9        29.99R
OSKALOOSA *      N/A     45  37  76 N13       30.05S
CENTERVILLE *  CLEAR     46  37  71 NW13      30.07S
OTTUMWA        CLEAR     45  37  73 NW14      30.04R
WASHINGTON *   CLEAR     46  39  76 NW15      30.00S
$$

ABBREVIATIONS USED IN REMARKS
   TC - TEMPERATURES IN CELSIUS
  WCI - WIND CHILL INDEX
   HX - HEAT INDEX
  VSB - VISIBILITY
$$




USA.gov is the U.S. government's official web portal to all federal, state and local government web resources and services.